Weather History for New Bedford, MA

Change the Weather History Date:

Monday, February 4, 2013

  Actual Average Record
Temperature  
Mean Temperature 26 °F -  
Max Temperature 30 °F 36 °F 58 °F (1991)
Min Temperature 21 °F 22 °F 4 °F (1978)
Degree Days  
Heating Degree Days 40    
Moisture  
Dew Point 10 °F    
Average Humidity 54    
Maximum Humidity 86    
Minimum Humidity 35    
Precipitation  
Precipitation 0.00 in - - ()
Sea Level Pressure  
Sea Level Pressure 29.82 in    
Wind  
Wind Speed 9 mph (WNW)    
Max Wind Speed 24 mph    
Max Gust Speed 36 mph    
Visibility 10 miles    
Events Snow    
Averages and records for this station are not official NWS values.
T = Trace of Precipitation, MM = Missing Value Source: NWS Daily Summary

Daily Weather History Graph

Daily Weather History Graph

Search for Another Location

Airport:

Trip Planner

Search our weather history database for the weather conditions in past years. The results will help you decide how hot, cold, wet, or windy it might be!

Date:

Astronomy

Feb. 04, 2013 Rise Set
Actual Time 6:52 AM EST 5:03 PM EST
Civil Twilight 6:23 AM EST 5:32 PM EST
Nautical Twilight 5:50 AM EST 6:05 PM EST
Astronomical Twilight 5:17 AM EST 6:38 PM EST
Moon 1:25 AM EST (2/4) 11:23 AM EST (2/4)
Length of Visible Light 11h 09m
Length of Day
10h 11m
Last Quarter, 37% of the Moon is Illuminated
Feb 4
Last Quarter
Feb 10
New
Feb 17
First Quarter
Feb 25
Full
Mar 4
Last Quarter

Hourly Weather History & Observations

Time (EST) Temp. Windchill Dew Point Humidity Pressure Visibility Wind Dir Wind Speed Gust Speed Precip Events Conditions
12:14 AM 24.8 °F 17.9 °F 21.2 °F 86% 29.72 in 4.0 mi WNW 5.8 mph - 0.00 in Snow Light Snow
12:53 AM 25.0 °F 17.1 °F 21.0 °F 85% 29.73 in 10.0 mi WNW 6.9 mph - 0.00 in   Overcast
1:53 AM 23.0 °F 15.8 °F 19.0 °F 85% 29.73 in 10.0 mi WNW 5.8 mph - N/A   Partly Cloudy
2:53 AM 23.0 °F 13.1 °F 17.1 °F 78% 29.72 in 10.0 mi West 9.2 mph - N/A   Clear
3:53 AM 21.9 °F 12.5 °F 12.0 °F 66% 29.73 in 10.0 mi WNW 8.1 mph - N/A   Clear
5:53 AM 23.0 °F 14.7 °F 12.0 °F 63% 29.76 in 10.0 mi WNW 6.9 mph - N/A   Overcast
6:53 AM 23.0 °F 13.9 °F 12.9 °F 65% 29.78 in 10.0 mi West 8.1 mph - N/A   Scattered Clouds
7:53 AM 24.1 °F 12.5 °F 14.0 °F 65% 29.80 in 10.0 mi WNW 12.7 mph - N/A   Clear
8:53 AM 26.1 °F 15.6 °F 12.9 °F 58% 29.81 in 10.0 mi WNW 11.5 mph 21.9 mph N/A   Clear
9:53 AM 28.9 °F 20.4 °F 10.9 °F 47% 29.81 in 10.0 mi West 9.2 mph - N/A   Clear
10:53 AM 30.0 °F 16.3 °F 7.0 °F 38% 29.82 in 10.0 mi West 24.2 mph 35.7 mph N/A   Clear
11:53 AM 30.9 °F 19.4 °F 6.1 °F 35% 29.80 in 10.0 mi West 17.3 mph 27.6 mph N/A   Partly Cloudy
12:53 PM 30.9 °F 20.7 °F 7.0 °F 37% 29.79 in 10.0 mi West 13.8 mph 28.8 mph N/A   Scattered Clouds
1:53 PM 30.0 °F 18.3 °F 6.1 °F 36% 29.80 in 10.0 mi West 17.3 mph 25.3 mph N/A   Mostly Cloudy
2:53 PM 30.9 °F 18.4 °F 7.0 °F 37% 29.82 in 10.0 mi West 20.7 mph 27.6 mph N/A   Mostly Cloudy
3:53 PM 30.0 °F 18.3 °F 5.0 °F 35% 29.82 in 10.0 mi West 17.3 mph 27.6 mph N/A   Clear
4:53 PM 28.0 °F 18.6 °F 5.0 °F 38% 29.83 in 10.0 mi WNW 10.4 mph 21.9 mph N/A   Partly Cloudy
5:53 PM 27.0 °F 18.7 °F 6.1 °F 41% 29.86 in 10.0 mi West 8.1 mph - N/A   Clear
6:53 PM 26.1 °F 19.4 °F 7.0 °F 44% 29.88 in 10.0 mi WNW 5.8 mph - N/A   Clear
7:53 PM 26.1 °F 16.8 °F 7.0 °F 44% 29.90 in 10.0 mi West 9.2 mph - N/A   Clear
8:53 PM 25.0 °F - 7.0 °F 46% 29.93 in 10.0 mi Calm Calm - N/A   Clear
9:53 PM 23.0 °F 14.7 °F 9.0 °F 55% 29.94 in 10.0 mi WNW 6.9 mph - N/A   Clear
10:53 PM 23.0 °F - 9.0 °F 55% 29.94 in 10.0 mi Calm Calm - N/A   Overcast
11:53 PM 24.1 °F 18.2 °F 9.0 °F 53% 29.96 in 10.0 mi WNW 4.6 mph - N/A   Overcast